Location: Lichtensteig
(47.3376°N, 9.0841°E)
Time: 09:50:53
(UTC+00:00)

Cosmos 1707 Rocket - Pass Details

Date: 03 March 2021
Orbit: 604 x 632 km, 82.5° (Epoch: 10 April)

Event Time Altitude Azimuth Distance (km) Brightness Sun altitude
Rises 17:57:04 0° 347° (NNW) 2,906 7.2 -8.4°
Reaches altitude 10° 17:59:21 10° 343° (NNW) 1,990 6.4 -8.8°
Maximum altitude 18:03:40 57° 265° (W) 727 4.3 -9.6°
Drops below altitude 10° 18:07:54 10° 187° (S) 1,958 6.2 -10.3°
Sets 18:10:07 0° 184° (S) 2,853 7.0 -10.7°
